Find Starlink 37648

NORAD ID: 100276 Int'l Des: 2026-183 Owner: SPXS Country: US Constellation: starlink operational

Aktuelle Ansicht

3D-Globus wird geladen...

About Starlink 37648

Starlink 37648 (NORAD 100276) is a starlink constellation satellite launched Aug 11, 2026 by SPXS of US. with a mass of 575.00 kg.

Nächste Überflüge

Passes for default location (London). Set your location on the main map for personalized predictions.

Höhenverlauf

Loading altitude history...

Zweizeiliger Elementsatz

1 A0276U 26183E 26262.49060091 -.00465144 00000-0 -68317-2 0 9995
2 A0276 53.1591 262.4651 0001202 68.5933 291.5207 15.56472335 6144
Epoch: 19. Sept. 2026 • Age: 31 hours

Aktueller Status

Höhe 404.2 km
Apogäum / Perigäum N/A
Geschwindigkeit 7.67 km/s
Subsatellitenpunkt 38.07°N, 113.3°E
Startdatum 11. Aug. 2026
Alter 0.1 years
Typ internet

Technische Details

Klassifizierung Payload
Masse 575.00 kg
Trockenmasse 530.00 kg
Länge 0.30 m
Spannweite 29.00 m
Form ? Box + pan
Hersteller SPXS
Bus-Typ Starlink V2MO
Phasenstatus In Orbit
Besitzer/Staat SPXS/US

Most Searched